Lid_Strength_Index
1 1 0 0 0 0 0 -0 0 0 0 0 0 -0 -0 -0 -0 1 5 2 2 -2 0 3 3 3 3 4 4 4 7 8 8 8 8 6 6 5 4 5 4 4 4 3 3
1 1 1 1 1 0 0 -0 -0 -0 0 0 0 0 0 0 2 4 0 -0 -2 -1 3 4 5 4 5 5 4 6 8 8 7 7 8 7 7 7 7 6 5 5 3 3 3
1 1 1 1 1 0 0 -0 -0 -0 0 0 0 0 0 0 4 5 -1 -2 -2 -0 3 3 4 5 6 5 5 6 8 7 7 7 7 8 8 6 7 8 6 6 5 4 3
2 2 1 1 1 0 -0 -0 -1 -0 -0 0 0 0 0 2 9 4 -2 -2 -2 2 3 4 5 6 7 7 6 8 7 7 7 7 8 8 7 8 7 7 5 5 4 4 4
1 2 1 1 1 0 -0 -0 -0 -0 -0 -0 0 0 2 6 6 -0 -2 -2 2 3 4 5 6 6 8 7 7 8 7 7 7 7 7 7 8 8 8 6 5 5 5 5 4
1 1 1 1 1 0 -0 -0 -0 -0 -0 0 0 1 4 8 3 0 -0 1 3 4 4 4 6 5 7 8 8 7 7 7 7 8 7 8 8 8 7 6 6 6 6 6 5
1 1 1 1 0 0 -0 -0 -0 0 0 0 0 1 6 5 2 1 2 3 3 3 5 4 5 6 6 8 6 7 9 8 8 7 8 8 10 10 7 6 7 7 6 6 5
2 2 1 1 1 1 0 0 1 1 1 1 1 4 7 5 3 3 4 4 4 4 5 5 5 6 7 6 8 10 10 12 9 9 9 9 12 8 7 8 8 7 6 6 6
1 2 2 2 1 1 1 1 2 1 1 1 3 5 7 5 6 5 5 6 5 5 5 5 5 7 8 10 11 10 13 11 10 8 9 10 11 8 7 8 8 8 7 7 6
2 2 2 1 1 1 1 3 2 2 2 3 5 8 7 8 6 6 6 6 7 7 7 8 8 10 10 11 14 12 11 10 11 9 9 11 11 9 8 9 8 8 7 7 7
2 1 1 1 1 1 2 4 5 5 6 6 6 7 7 6 6 7 7 8 8 9 11 9 11 12 10 9 9 10 12 12 10 9 10 11 11 11 9 8 8 7 7 7 7
2 2 2 1 1 0 3 4 6 7 7 4 6 7 7 7 9 8 7 10 10 12 10 12 13 10 8 10 11 11 12 12 11 9 12 12 12 10 9 8 8 8 8 7 7
2 2 2 2 3 2 5 7 5 6 8 7 8 9 9 8 8 8 8 9 10 11 11 12 10 10 11 11 11 11 12 12 13 11 11 12 12 10 9 8 8 8 8 7 8
2 2 2 1 2 2 4 5 5 6 10 9 10 10 9 9 11 9 8 9 10 11 10 11 10 11 12 13 11 14 11 12 13 13 15 12 17 12 10 9 9 8 8 8 8
3 2 3 2 3 4 4 5 5 7 18 11 12 8 9 11 10 11 9 9 11 11 11 12 13 13 13 12 12 13 12 13 13 14 14 14 16 12 11 11 10 9 9 9 9
3 3 3 4 4 5 7 7 7 12 19 13 11 11 12 11 11 10 10 9 9 11 11 11 11 11 11 11 12 12 13 12 12 14 17 13 14 13 12 11 10 10 9 10 9
3 3 3 3 5 6 7 7 13 17 10 13 13 11 11 11 12 11 12 12 12 13 13 11 12 10 10 11 11 12 13 15 16 16 16 12 14 13 10 8 10 10 10 9 9
4 3 4 3 4 5 5 9 17 13 12 9 11 10 11 10 10 11 11 11 10 11 12 13 14 11 10 10 11 11 11 15 21 19 16 12 15 12 8 10 9 9 9 9 10
4 3 3 3 4 3 7 14 14 11 9 10 9 11 11 9 10 10 10 10 9 9 13 13 14 10 11 9 10 11 13 10 14 14 17 15 12 9 8 10 10 10 10 10 11
4 5 5 2 3 4 9 13 11 9 8 9 13 10 12 11 11 11 11 10 11 10 9 11 15 10 10 10 10 11 10 14 13 18 19 16 14 13 10 11 10 11 11 11 11
7 9 6 3 3 7 13 12 10 8 8 10 11 11 11 11 11 11 12 10 9 10 9 10 11 12 10 11 11 11 13 12 12 13 18 18 16 9 11 11 11 12 11 11 11
7 12 6 3 9 9 11 10 10 9 8 9 9 10 11 11 12 11 12 10 8 8 10 8 12 15 12 9 7 8 10 10 15 16 14 15 15 7 7 10 11 12 11 11 11
9 8 5 5 12 11 10 11 10 10 10 10 10 10 10 11 13 11 10 7 7 8 10 9 13 17 14 10 9 11 10 10 11 13 17 19 16 7 7 9 11 12 11 11 10
8 11 8 7 7 9 10 10 11 8 9 8 9 8 9 11 9 11 10 8 7 8 9 8 12 15 17 14 13 14 12 11 13 16 16 15 14 10 9 11 12 13 12 12 12
7 9 8 11 10 9 8 9 10 10 7 7 9 9 9 12 11 11 9 9 9 9 9 9 14 13 12 11 11 12 12 12 13 13 16 13 13 10 9 11 12 12 12 13 12
8 10 8 8 7 9 9 10 10 9 9 9 10 9 9 11 11 12 10 10 10 10 10 11 13 12 14 11 11 13 12 12 12 12 13 12 13 9 12 12 12 11 11 11 11
7 7 8 10 10 9 10 9 10 8 10 9 9 10 11 10 9 9 9 9 9 11 11 12 12 14 16 13 15 17 15 13 12 12 12 15 12 11 12 12 11 11 11 11 10